Temp
-25 -25 -24 -24 -23 -20 -20 -20 -20 -20 -18 -17 -17 -16 -16 -15 -14 -14 -13 -13 -13 -13 -12 -12 -11 -11 -12 -12 -11 -11 -11 -11 -10 -9 -9 -10 -10 -10 -10 -9 -10 -9 -9 -9 -9
-25 -24 -24 -23 -23 -20 -20 -20 -20 -19 -19 -18 -18 -17 -16 -15 -15 -14 -14 -14 -13 -13 -13 -12 -12 -12 -12 -12 -11 -11 -11 -10 -10 -10 -10 -10 -9 -10 -10 -10 -10 -9 -9 -9 -9
-25 -24 -23 -22 -22 -21 -20 -20 -20 -20 -19 -19 -19 -18 -17 -16 -15 -14 -14 -14 -14 -14 -13 -13 -13 -12 -12 -12 -12 -12 -11 -11 -11 -11 -10 -10 -10 -10 -10 -10 -9 -10 -9 -9 -9
-25 -24 -23 -21 -21 -20 -20 -21 -20 -20 -20 -19 -19 -18 -17 -16 -15 -15 -15 -14 -14 -14 -14 -14 -13 -13 -13 -12 -12 -12 -12 -11 -11 -11 -10 -10 -10 -10 -10 -10 -9 -10 -10 -9 -9
-25 -23 -22 -21 -20 -20 -21 -20 -20 -20 -20 -19 -19 -18 -17 -17 -16 -16 -15 -15 -15 -14 -14 -14 -14 -14 -13 -13 -13 -12 -12 -12 -12 -11 -11 -11 -11 -10 -11 -10 -10 -10 -10 -10 -10
-24 -22 -22 -21 -21 -21 -21 -21 -20 -20 -19 -19 -18 -18 -17 -17 -16 -17 -16 -16 -15 -15 -14 -14 -14 -14 -13 -13 -13 -13 -13 -12 -12 -11 -11 -11 -11 -10 -11 -11 -10 -10 -10 -10 -10
-23 -22 -22 -21 -21 -21 -21 -21 -20 -20 -19 -18 -18 -18 -18 -17 -17 -17 -16 -16 -16 -15 -15 -14 -14 -14 -14 -14 -13 -13 -13 -13 -12 -12 -11 -11 -11 -11 -11 -11 -11 -10 -10 -10 -10
-22 -22 -22 -21 -21 -21 -21 -21 -21 -20 -19 -19 -19 -18 -18 -17 -17 -17 -17 -16 -16 -16 -15 -15 -14 -14 -14 -14 -14 -14 -13 -13 -13 -12 -12 -11 -11 -11 -12 -11 -11 -11 -11 -10 -10
-21 -21 -21 -21 -21 -21 -21 -21 -21 -20 -20 -19 -19 -19 -18 -18 -18 -18 -17 -16 -16 -16 -16 -15 -15 -15 -14 -14 -14 -14 -14 -13 -13 -13 -12 -12 -11 -12 -11 -11 -11 -11 -11 -11 -11
-20 -21 -21 -21 -22 -21 -21 -21 -21 -20 -20 -20 -20 -19 -18 -18 -18 -18 -17 -17 -16 -15 -16 -16 -15 -15 -15 -15 -14 -14 -13 -13 -13 -13 -12 -12 -12 -12 -12 -12 -12 -12 -11 -11 -11
-20 -21 -21 -21 -21 -21 -21 -21 -21 -21 -20 -20 -19 -19 -19 -18 -18 -18 -17 -17 -16 -16 -16 -16 -16 -15 -15 -15 -15 -14 -14 -14 -13 -12 -13 -13 -12 -13 -12 -12 -12 -12 -11 -12 -11
-20 -21 -21 -22 -21 -21 -21 -21 -22 -21 -20 -20 -20 -19 -19 -19 -18 -18 -17 -17 -17 -17 -16 -16 -16 -15 -15 -15 -15 -14 -14 -14 -13 -13 -13 -13 -12 -13 -12 -12 -12 -12 -12 -12 -12
-20 -20 -20 -21 -22 -21 -21 -21 -21 -21 -21 -21 -20 -20 -19 -19 -18 -18 -18 -18 -18 -17 -17 -16 -16 -15 -15 -15 -15 -15 -14 -14 -14 -14 -14 -13 -13 -13 -13 -14 -13 -13 -12 -12 -12
-19 -19 -20 -20 -20 -21 -21 -21 -21 -21 -20 -21 -20 -19 -19 -19 -18 -18 -18 -18 -18 -17 -17 -16 -16 -16 -15 -15 -15 -15 -15 -15 -15 -14 -14 -14 -13 -13 -13 -13 -12 -12 -12 -12 -12
-19 -19 -19 -20 -19 -19 -19 -19 -20 -20 -20 -20 -20 -19 -19 -19 -18 -18 -18 -17 -17 -17 -17 -16 -16 -16 -16 -16 -16 -16 -15 -15 -15 -15 -15 -14 -14 -13 -13 -14 -13 -13 -13 -14 -14
-19 -19 -19 -20 -19 -19 -19 -19 -19 -19 -19 -19 -19 -19 -19 -18 -18 -18 -17 -17 -17 -17 -17 -16 -16 -16 -16 -16 -16 -16 -16 -15 -15 -15 -14 -14 -14 -13 -14 -14 -15 -14 -14 -14 -14
-17 -18 -19 -19 -19 -19 -19 -19 -19 -19 -19 -19 -19 -19 -19 -18 -18 -18 -18 -18 -17 -17 -17 -17 -17 -16 -16 -16 -16 -15 -15 -15 -15 -15 -15 -15 -15 -15 -14 -14 -14 -14 -14 -13 -14
-16 -16 -17 -18 -19 -19 -19 -19 -18 -18 -18 -18 -18 -18 -18 -18 -18 -18 -18 -18 -18 -17 -17 -17 -17 -16 -16 -16 -16 -16 -16 -16 -16 -16 -15 -15 -15 -15 -14 -14 -14 -13 -13 -14 -14
-15 -15 -15 -16 -17 -18 -19 -19 -18 -18 -18 -18 -18 -18 -18 -18 -18 -18 -18 -18 -17 -17 -17 -17 -17 -17 -17 -17 -17 -17 -17 -16 -16 -16 -15 -15 -15 -15 -14 -14 -14 -14 -14 -14 -14
-15 -15 -15 -15 -15 -16 -18 -18 -18 -18 -18 -18 -18 -18 -18 -18 -18 -18 -18 -18 -18 -17 -17 -17 -17 -17 -17 -17 -17 -17 -16 -16 -16 -16 -15 -15 -15 -15 -15 -15 -15 -14 -14 -14 -14
-15 -15 -15 -15 -16 -16 -16 -16 -16 -17 -17 -17 -17 -17 -17 -17 -18 -18 -18 -18 -17 -17 -17 -17 -17 -17 -17 -16 -16 -16 -16 -16 -16 -15 -15 -15 -15 -15 -15 -14 -14 -14 -14 -14 -14
-14 -14 -15 -15 -15 -16 -15 -15 -16 -16 -17 -17 -17 -17 -17 -17 -17 -17 -17 -17 -17 -17 -17 -17 -17 -16 -16 -16 -16 -16 -16 -16 -16 -15 -15 -15 -15 -15 -15 -15 -14 -14 -14 -14 -14
-13 -14 -14 -15 -15 -15 -15 -16 -16 -16 -16 -16 -16 -16 -16 -16 -17 -17 -17 -17 -17 -16 -16 -16 -16 -16 -16 -16 -16 -15 -16 -15 -15 -15 -15 -15 -15 -15 -15 -15 -15 -14 -14 -14 -14
-13 -13 -14 -14 -14 -15 -15 -15 -15 -15 -16 -16 -16 -16 -16 -16 -16 -16 -16 -16 -16 -16 -16 -16 -16 -16 -16 -15 -15 -15 -15 -15 -15 -15 -15 -15 -15 -15 -14 -15 -15 -15 -15 -14 -14
-12 -12 -13 -13 -13 -14 -14 -15 -15 -15 -15 -15 -15 -15 -15 -15 -15 -15 -15 -15 -15 -15 -16 -15 -15 -15 -15 -15 -15 -15 -15 -15 -15 -15 -15 -15 -14 -14 -14 -14 -14 -14 -15 -15 -14
-12 -12 -12 -13 -13 -13 -13 -13 -14 -15 -15 -15 -15 -15 -15 -15 -15 -15 -15 -15 -15 -15 -15 -15 -15 -15 -15 -14 -14 -14 -14 -15 -14 -14 -14 -14 -14 -14 -14 -15 -14 -14 -14 -15 -15
-12 -12 -12 -12 -12 -13 -13 -13 -13 -13 -14 -14 -14 -14 -14 -14 -14 -14 -14 -14 -14 -14 -14 -14 -14 -14 -14 -13 -14 -14 -14 -14 -14 -14 -14 -14 -14 -14 -14 -14 -14 -14 -15 -15 -15
Height
5548 5540 5535 5532 5531 5541 5561 5571 5583 5590 5602 5617 5631 5645 5657 5670 5682 5692 5705 5716 5723 5731 5738 5745 5751 5758 5762 5767 5771 5775 5779 5782 5784 5787 5793 5794 5797 5799 5802 5805 5807 5810 5812 5817 5820
5544 5537 5528 5529 5531 5548 5562 5570 5581 5587 5596 5610 5624 5637 5651 5662 5672 5685 5698 5707 5717 5725 5732 5739 5746 5752 5759 5763 5767 5773 5776 5779 5784 5786 5789 5792 5795 5797 5800 5800 5802 5805 5806 5810 5813
5541 5534 5531 5534 5538 5552 5563 5571 5581 5589 5597 5606 5620 5635 5645 5653 5665 5680 5690 5700 5710 5719 5727 5734 5741 5747 5753 5758 5763 5768 5771 5777 5780 5782 5786 5789 5791 5794 5796 5796 5800 5802 5804 5805 5807
5535 5534 5535 5540 5549 5558 5566 5575 5584 5593 5598 5606 5619 5633 5642 5650 5663 5673 5683 5694 5704 5713 5721 5728 5735 5741 5747 5754 5758 5763 5767 5771 5775 5778 5781 5784 5787 5790 5791 5793 5797 5798 5800 5800 5802
5533 5539 5544 5549 5557 5565 5570 5581 5589 5594 5599 5607 5618 5632 5638 5647 5658 5668 5677 5687 5697 5707 5716 5723 5730 5736 5742 5749 5753 5758 5762 5766 5770 5773 5776 5779 5782 5784 5785 5788 5789 5792 5794 5795 5796
5543 5549 5555 5561 5566 5573 5580 5587 5592 5595 5600 5608 5618 5628 5638 5647 5655 5662 5671 5682 5692 5701 5710 5718 5726 5733 5739 5744 5749 5754 5757 5760 5764 5768 5771 5774 5776 5778 5778 5781 5783 5785 5787 5789 5790
5562 5563 5570 5574 5579 5584 5589 5593 5597 5599 5604 5610 5617 5628 5635 5643 5651 5657 5665 5676 5687 5697 5707 5715 5722 5729 5735 5739 5743 5748 5753 5755 5759 5762 5765 5768 5770 5771 5773 5773 5776 5778 5780 5782 5783
5582 5583 5584 5587 5589 5594 5598 5602 5603 5604 5608 5610 5615 5625 5634 5642 5649 5655 5665 5674 5684 5694 5702 5710 5717 5723 5729 5734 5739 5742 5746 5749 5754 5756 5759 5762 5766 5764 5766 5766 5768 5770 5771 5773 5775
5597 5599 5599 5601 5602 5604 5606 5608 5609 5610 5611 5613 5617 5628 5635 5641 5649 5655 5665 5673 5681 5689 5698 5705 5712 5718 5724 5728 5733 5737 5741 5744 5747 5749 5752 5755 5759 5757 5758 5760 5761 5761 5763 5764 5766
5614 5610 5609 5608 5609 5610 5611 5610 5614 5615 5616 5617 5619 5630 5636 5642 5650 5657 5665 5673 5680 5687 5694 5702 5708 5713 5719 5723 5728 5731 5735 5739 5739 5746 5745 5747 5750 5751 5751 5752 5754 5754 5754 5754 5754
5624 5618 5615 5614 5616 5616 5617 5618 5621 5618 5619 5620 5626 5633 5640 5645 5653 5658 5666 5672 5680 5686 5693 5699 5705 5709 5715 5720 5723 5725 5729 5730 5733 5736 5739 5740 5742 5745 5745 5746 5745 5745 5744 5743 5742
5633 5627 5622 5621 5619 5621 5622 5624 5624 5622 5621 5622 5629 5638 5644 5649 5655 5662 5669 5676 5680 5686 5691 5697 5702 5706 5710 5714 5718 5720 5722 5725 5728 5730 5730 5732 5736 5736 5737 5736 5735 5735 5732 5732 5730
5643 5637 5632 5626 5625 5626 5628 5629 5628 5627 5629 5630 5634 5641 5648 5654 5659 5665 5672 5677 5682 5687 5691 5696 5700 5703 5706 5710 5713 5716 5718 5721 5722 5724 5723 5727 5727 5728 5728 5725 5725 5724 5722 5721 5718
5652 5647 5642 5637 5634 5631 5632 5633 5634 5634 5637 5639 5641 5646 5653 5658 5664 5668 5674 5680 5684 5688 5691 5695 5698 5702 5704 5707 5711 5714 5715 5717 5718 5719 5720 5719 5721 5721 5719 5718 5717 5715 5711 5709 5704
5661 5658 5652 5647 5645 5642 5641 5640 5641 5644 5646 5649 5650 5654 5658 5664 5670 5673 5677 5681 5684 5688 5692 5695 5698 5701 5704 5706 5708 5711 5712 5713 5713 5714 5714 5714 5713 5714 5712 5707 5704 5703 5700 5697 5694
5670 5665 5662 5658 5655 5652 5651 5649 5649 5653 5652 5656 5658 5661 5664 5667 5671 5674 5678 5682 5685 5688 5691 5694 5697 5700 5702 5704 5706 5707 5708 5709 5709 5708 5708 5708 5706 5708 5703 5701 5698 5696 5693 5690 5687
5683 5675 5670 5667 5665 5663 5661 5660 5660 5659 5661 5663 5664 5666 5669 5671 5674 5676 5680 5682 5685 5689 5691 5694 5696 5699 5701 5703 5704 5704 5704 5703 5704 5702 5701 5702 5701 5701 5699 5697 5694 5691 5688 5686 5680
5700 5691 5680 5675 5674 5672 5670 5670 5668 5667 5667 5669 5670 5671 5673 5675 5678 5680 5682 5685 5687 5689 5692 5694 5697 5698 5699 5700 5701 5700 5700 5700 5698 5698 5698 5698 5699 5697 5695 5693 5691 5688 5685 5680 5673
5711 5706 5699 5687 5682 5680 5678 5677 5676 5674 5675 5675 5675 5677 5679 5680 5682 5684 5686 5688 5689 5691 5693 5694 5695 5696 5696 5696 5698 5697 5698 5698 5697 5696 5696 5697 5696 5695 5693 5691 5688 5686 5680 5674 5666
5721 5719 5711 5702 5694 5689 5684 5684 5682 5681 5681 5681 5682 5682 5683 5684 5685 5686 5687 5689 5690 5691 5692 5694 5694 5694 5695 5695 5696 5696 5697 5697 5696 5696 5696 5696 5695 5694 5693 5690 5687 5682 5676 5669 5663
5729 5725 5720 5714 5705 5700 5700 5696 5692 5688 5686 5686 5686 5687 5687 5687 5687 5688 5690 5690 5690 5691 5692 5692 5694 5696 5696 5696 5696 5696 5696 5697 5697 5696 5695 5694 5695 5693 5692 5689 5685 5680 5670 5667 5663
5734 5731 5726 5722 5718 5711 5709 5706 5703 5701 5697 5695 5694 5693 5692 5692 5693 5693 5693 5693 5694 5694 5695 5695 5695 5695 5696 5696 5697 5698 5698 5698 5698 5697 5695 5694 5695 5692 5690 5688 5683 5676 5670 5668 5665
5741 5735 5731 5728 5726 5723 5717 5714 5712 5710 5708 5706 5703 5701 5700 5699 5700 5699 5699 5698 5698 5698 5698 5699 5699 5699 5699 5700 5699 5698 5698 5698 5697 5696 5696 5694 5695 5691 5688 5684 5681 5677 5673 5670 5666
5745 5741 5736 5732 5729 5728 5726 5722 5719 5717 5715 5715 5714 5712 5709 5707 5706 5706 5705 5705 5704 5703 5702 5702 5701 5701 5702 5701 5700 5699 5698 5697 5696 5695 5695 5693 5691 5689 5686 5683 5680 5677 5674 5670 5666
5747 5745 5740 5736 5734 5731 5730 5728 5725 5721 5720 5718 5716 5716 5716 5715 5714 5711 5710 5709 5708 5707 5706 5705 5704 5703 5702 5701 5700 5699 5698 5697 5696 5695 5694 5692 5688 5686 5684 5681 5678 5675 5671 5668 5664
5746 5745 5743 5739 5735 5734 5733 5731 5729 5727 5723 5721 5719 5717 5717 5716 5715 5713 5712 5710 5709 5708 5707 5706 5705 5703 5701 5700 5699 5698 5697 5696 5695 5693 5691 5689 5687 5683 5680 5677 5674 5672 5668 5664 5662
5746 5744 5743 5741 5737 5734 5733 5732 5731 5729 5728 5724 5720 5717 5715 5715 5714 5714 5714 5712 5709 5708 5706 5704 5703 5702 5701 5699 5698 5698 5695 5693 5693 5691 5689 5687 5685 5680 5676 5673 5670 5667 5664 5661 5658
Wind_Speed
32 26 24 21 16 45 40 34 35 31 51 59 55 57 55 57 57 57 54 50 46 44 42 40 37 34 31 30 29 29 28 26 28 26 21 22 23 26 28 31 32 34 37 36 35
29 25 20 8 16 34 36 30 23 28 34 47 49 54 52 54 57 56 53 52 49 46 43 41 39 37 35 33 32 31 30 29 27 27 27 26 25 23 22 22 23 23 26 27 29
25 20 9 16 24 22 32 33 34 14 18 38 46 49 49 54 56 54 54 53 51 48 44 43 40 39 36 36 35 33 34 30 30 31 30 30 30 28 27 27 24 25 26 26 27
16 14 11 18 25 22 26 28 23 20 21 34 37 42 40 43 51 52 53 53 51 49 46 43 41 39 36 36 35 34 34 35 34 33 34 33 33 33 33 33 31 32 33 33 32
18 25 29 31 22 23 25 23 18 17 22 35 39 40 34 35 39 47 51 53 51 50 47 45 43 40 38 35 34 35 33 34 34 34 35 36 36 36 36 37 37 36 36 36 36
31 37 24 29 29 26 24 20 12 17 25 37 41 45 37 33 33 37 48 50 50 50 48 45 43 42 38 36 38 34 33 33 33 35 35 35 35 37 36 37 39 38 37 38 39
34 40 31 30 27 25 22 19 18 21 29 43 34 39 33 39 32 36 43 47 49 48 46 44 42 40 39 38 38 37 36 35 35 35 36 37 37 38 36 38 38 40 41 42 44
33 29 34 29 28 26 25 24 21 15 29 44 43 29 35 39 35 31 34 36 43 44 45 43 42 40 39 38 38 37 38 37 36 37 37 39 38 43 40 42 43 43 45 47 48
28 23 27 29 34 26 24 20 17 14 15 33 34 30 32 32 30 32 33 32 35 43 43 42 42 41 40 39 38 37 38 40 39 39 40 42 42 44 47 45 47 47 48 49 50
13 17 16 17 23 21 18 17 12 9 6 19 27 32 34 29 26 30 34 30 28 32 39 40 40 39 38 38 39 39 40 39 41 40 43 43 44 44 45 48 47 47 49 51 53
32 21 11 11 9 10 15 12 4 1 6 19 33 27 26 25 30 29 28 28 27 27 31 34 34 37 37 36 36 38 38 41 42 45 41 42 45 42 43 44 46 48 49 49 53
42 34 15 11 12 12 15 12 17 16 12 12 26 25 27 22 26 27 20 20 22 24 24 24 25 26 27 29 32 32 33 33 32 33 35 35 37 38 40 40 42 44 47 50 52
39 38 33 17 7 13 13 11 12 17 17 20 23 18 28 20 20 21 21 18 18 19 20 19 20 21 23 23 24 25 25 24 26 27 30 29 30 32 33 35 38 42 47 50 53
36 37 38 34 25 16 14 18 19 18 24 20 19 19 25 18 23 24 20 16 16 13 13 14 14 16 16 17 17 18 18 19 22 23 25 27 30 30 35 38 42 45 47 48 50
38 33 35 36 34 28 24 22 22 22 21 22 20 22 15 15 18 17 15 10 13 11 10 12 12 11 12 12 12 12 14 16 18 21 23 26 32 33 34 37 41 41 39 39 37
38 35 31 30 29 31 27 25 26 22 23 23 20 17 15 19 15 13 13 11 13 13 12 11 10 9 8 7 8 11 14 16 20 24 28 31 33 31 30 28 30 33 35 38 37
52 39 31 30 28 27 24 24 23 22 21 19 18 18 16 16 17 17 15 14 13 11 10 11 10 9 8 8 11 16 21 25 27 27 27 24 24 17 19 22 23 23 28 27 26
53 51 41 31 28 24 23 21 24 25 25 24 19 19 17 17 16 14 13 12 13 12 13 12 10 9 11 16 19 18 17 18 18 15 12 10 11 10 10 13 14 10 10 18 25
47 47 47 43 32 25 21 18 20 21 21 19 20 17 16 14 14 13 12 11 9 10 9 9 10 12 12 12 12 10 9 9 9 8 5 2 4 7 8 9 12 17 19 19 17
40 40 41 43 45 42 29 19 19 18 17 15 11 10 8 8 6 8 7 8 9 9 10 8 7 9 9 7 5 5 5 4 2 3 2 2 5 6 11 14 16 17 20 19 23
33 34 37 37 39 38 35 35 33 30 26 21 17 15 13 11 10 9 7 6 6 5 7 8 7 7 4 4 3 3 3 1 1 2 2 3 4 7 10 15 20 22 32 31 26
29 29 31 32 33 33 33 34 33 30 27 26 25 24 23 21 19 18 14 13 11 8 7 7 8 9 9 8 7 5 2 1 0 3 4 7 8 11 11 16 21 27 28 26 27
26 24 25 27 26 28 29 29 30 31 31 31 29 28 26 25 22 21 19 18 17 15 14 13 12 9 6 7 5 2 3 3 3 7 8 9 8 11 14 18 19 21 21 22 24
21 22 21 21 21 21 22 23 24 24 26 26 26 26 25 24 23 22 20 18 17 15 14 11 10 9 8 6 5 6 5 5 5 5 5 7 10 12 16 19 20 20 20 22 23
17 18 17 18 19 18 17 15 15 17 18 19 20 19 18 17 15 14 12 11 9 8 7 6 4 3 2 2 2 2 2 3 5 6 9 12 15 17 19 20 23 24 25 22 21
13 14 15 13 14 15 16 14 11 8 9 8 10 9 10 10 9 6 5 5 5 5 5 6 6 7 8 6 6 7 9 10 11 13 12 15 19 23 25 26 25 24 22 23 20
15 12 13 12 10 9 10 11 11 11 11 10 8 8 9 11 11 10 8 7 6 5 5 5 6 9 12 12 13 12 15 16 17 18 19 20 25 30 30 27 25 20 19 22 20
Wind_Direction
332 327 319 301 262 180 177 194 204 226 222 218 211 213 215 213 216 214 217 219 218 216 217 218 219 221 218 220 224 226 223 226 227 232 235 243 241 243 246 249 250 249 250 251 247
339 342 337 85 207 159 160 180 190 211 213 212 203 209 210 212 213 214 214 216 219 218 217 218 219 220 224 224 224 228 231 230 234 241 241 245 243 244 247 250 247 247 250 250 252
345 349 71 95 205 163 170 192 203 204 207 198 197 201 205 211 211 210 213 215 217 219 220 221 220 221 224 227 229 229 234 237 240 241 243 244 244 243 247 250 248 251 249 253 256
349 28 92 112 145 138 158 181 198 208 186 185 187 192 204 209 212 210 211 214 216 217 220 221 222 221 223 228 231 233 236 238 240 245 248 248 247 245 248 251 249 254 255 258 259
64 76 106 100 135 133 149 159 135 158 173 170 172 176 189 194 209 210 210 210 213 215 217 221 224 223 224 227 230 233 233 237 240 244 247 251 252 251 254 252 254 253 256 258 259
67 82 98 94 128 132 127 132 128 147 162 168 170 177 194 191 200 205 209 209 211 213 215 219 226 229 228 229 232 235 234 236 239 242 246 251 255 253 255 255 255 256 257 259 260
69 90 86 100 103 107 113 115 107 139 160 162 157 174 179 178 182 197 202 208 209 212 215 218 222 228 230 231 232 236 238 240 243 245 249 254 257 257 258 259 258 260 260 260 262
73 89 85 86 96 97 94 96 89 109 165 178 181 165 172 179 194 189 197 202 209 208 213 216 219 222 228 235 238 240 242 244 245 249 251 254 258 261 262 263 263 263 263 263 263
72 76 92 83 96 74 64 72 76 107 138 187 193 182 171 169 183 187 195 198 203 207 210 214 218 222 227 232 236 241 246 250 251 253 256 259 259 261 263 263 265 266 266 265 266
87 63 75 92 74 61 58 40 50 55 134 179 189 181 182 166 171 177 188 189 194 203 208 213 217 221 226 232 237 242 248 252 256 255 259 260 261 265 266 266 268 269 271 273 273
51 46 77 115 94 75 64 60 59 243 187 170 180 171 179 186 175 155 166 176 184 195 207 214 223 227 231 235 238 244 246 253 256 260 261 263 266 267 268 272 273 274 275 273 272
43 54 47 86 115 78 86 75 55 69 105 125 167 145 148 158 170 178 170 179 188 194 198 203 211 217 226 233 238 242 247 252 259 262 263 264 267 267 270 271 272 274 274 276 276
42 46 53 57 101 102 107 61 44 60 106 112 144 147 149 156 163 162 158 154 169 179 186 195 202 206 213 221 230 237 245 252 257 262 267 266 266 270 272 274 276 277 278 280 281
42 48 51 60 74 113 107 92 84 84 99 110 120 149 164 144 159 157 154 155 161 157 169 182 192 201 209 217 225 236 243 252 259 264 268 270 271 276 279 281 281 281 283 283 281
39 48 56 57 63 71 86 94 99 96 96 106 115 133 137 141 162 169 172 183 180 187 179 188 195 201 209 219 232 238 249 251 256 260 265 274 283 288 284 279 281 284 286 285 279
41 41 48 60 63 68 76 92 103 106 100 102 108 117 131 133 148 160 192 181 169 176 184 189 196 206 211 215 220 236 251 263 273 278 278 278 279 284 282 283 284 289 287 288 296
38 42 45 54 59 65 73 83 93 91 98 101 105 108 116 129 151 154 163 168 170 175 173 163 165 174 200 229 248 258 265 269 272 273 276 280 281 281 282 283 286 291 291 299 311
46 44 44 53 55 64 70 78 89 88 94 101 100 104 106 109 117 129 140 151 155 159 160 168 187 213 239 254 263 262 265 270 275 274 274 270 282 298 306 310 306 309 325 332 328
46 47 52 55 60 59 67 75 80 83 93 98 103 104 106 112 120 129 139 145 157 174 201 225 243 252 256 248 247 251 252 258 265 268 271 276 24 342 328 314 326 323 353 353 348
45 46 52 59 63 62 55 65 74 76 83 90 94 101 113 125 142 161 182 201 221 236 239 230 225 215 217 206 214 227 238 244 274 277 263 296 291 349 1 352 342 351 7 23 18
37 45 49 54 61 63 67 68 71 77 79 79 84 85 89 99 103 111 117 129 137 144 147 151 165 182 171 167 165 162 162 163 297 321 236 274 341 359 20 44 29 39 40 34 24
30 38 45 51 54 64 67 68 72 74 77 83 85 87 89 92 93 94 100 105 103 113 125 137 132 124 125 125 129 134 145 197 48 47 38 44 55 50 47 30 23 28 29 24 24
20 32 38 45 49 57 64 70 74 76 77 78 83 88 89 90 92 94 96 97 104 105 101 113 117 124 131 129 134 133 127 112 72 64 60 52 39 20 15 11 12 17 17 19 19
11 20 31 36 40 44 52 64 71 71 74 73 73 75 78 81 83 85 85 84 87 91 98 103 104 105 110 106 94 95 93 68 51 36 21 10 354 355 356 357 357 359 2 2 7
359 2 17 26 31 35 41 46 56 68 68 66 63 58 53 49 53 57 58 54 54 58 66 65 65 71 59 25 30 31 7 342 333 336 337 335 335 337 339 340 340 340 341 342 345
333 343 355 9 22 26 30 31 34 43 48 48 45 41 32 27 12 1 3 352 346 332 330 324 312 310 297 274 282 298 296 301 303 306 313 322 323 326 326 328 328 333 334 336 335
331 319 325 336 354 11 14 19 23 21 14 18 29 31 36 44 45 38 25 20 39 49 37 7 323 289 281 284 290 292 290 292 295 300 308 320 325 323 320 322 330 341 345 337 325